Bellefontaine, OH

7:18 PM EST on November 18, 2017 (GMT -0500)
Bellefontaine

Weather History for KEDJ - February, 2013

Change the Weather History Date:

Wednesday, February 20, 2013

  Actual Average (KDLZ) Record (KDLZ)
Temperature  
Mean Temperature 18 °F -  
Max Temperature 21 °F 41 °F 68 °F (2016)
Min Temperature 14 °F 21 °F -11 °F (1936)
Degree Days  
Heating Degree Days 48    
Moisture  
Dew Point 13 °F    
Average Humidity 80    
Maximum Humidity 93    
Minimum Humidity 68    
Precipitation  
Precipitation 0.00 in - - ()
Sea Level Pressure  
Sea Level Pressure 30.15 in    
Wind  
Wind Speed 11 mph (West)    
Max Wind Speed 18 mph    
Max Gust Speed 24 mph    
Visibility 8 miles    
Events      
Averages and records for this station are not official NWS values.
T = Trace of Precipitation, MM = Missing Value Source: NWS Daily Summary

Daily Weather History Graph

Daily Weather History Graph

Search for Another Location

Airport or City:

Trip Planner

Search our weather history database for the weather conditions in past years. The results will help you decide how hot, cold, wet, or windy it might be!

Date:

Astronomy

Feb. 20, 2013 Rise Set
Actual Time 7:21 AM EST 6:16 PM EST
Civil Twilight 6:54 AM EST 6:44 PM EST
Nautical Twilight 6:22 AM EST 7:16 PM EST
Astronomical Twilight 5:50 AM EST 7:47 PM EST
Moon 1:36 PM EST (2/20) 3:41 AM EST (2/20)
Length of Visible Light 11h 50m
Length of Day
10h 55m
Waxing Gibbous, 76% of the Moon is Illuminated
Feb 20
Waxing Gibbous
Feb 25
Full
Mar 4
Last Quarter
Mar 11
New
Mar 19
First Quarter

Hourly Weather History & Observations

Time (EST) Temp. Windchill Dew Point Humidity Pressure Visibility Wind Dir Wind Speed Gust Speed Precip Events Conditions
12:15 AM 19.4 °F 7.9 °F 14.0 °F 80% 30.02 in 5.0 mi West 10.4 mph 20.7 mph 0.00 in   Mostly Cloudy
12:35 AM 19.4 °F 8.6 °F 14.0 °F 80% 30.02 in 5.0 mi WNW 9.2 mph - 0.00 in   Overcast
12:55 AM 17.6 °F 4.3 °F 14.0 °F 86% 30.02 in 3.0 mi WNW 12.7 mph 16.1 mph 0.00 in   Mostly Cloudy
1:15 AM 17.6 °F 6.4 °F 14.0 °F 86% 30.03 in 5.0 mi West 9.2 mph - 0.00 in   Overcast
1:35 AM 17.6 °F 6.4 °F 14.0 °F 86% 30.03 in 3.0 mi WNW 9.2 mph - 0.00 in   Overcast
1:55 AM 17.6 °F 6.4 °F 14.0 °F 86% 30.03 in 4.0 mi WNW 9.2 mph - 0.00 in   Overcast
2:15 AM 17.6 °F 7.3 °F 12.2 °F 79% 30.04 in 7.0 mi WNW 8.1 mph - 0.00 in   Overcast
2:35 AM 17.6 °F 5.7 °F 12.2 °F 79% 30.04 in 10.0 mi WNW 10.4 mph 16.1 mph 0.00 in   Mostly Cloudy
2:55 AM 17.6 °F 5.7 °F 12.2 °F 79% 30.04 in 10.0 mi West 10.4 mph - 0.00 in   Mostly Cloudy
3:15 AM 17.6 °F 5.7 °F 12.2 °F 79% 30.05 in 7.0 mi West 10.4 mph - 0.00 in   Mostly Cloudy
3:35 AM 17.6 °F 5.7 °F 12.2 °F 79% 30.06 in 9.0 mi West 10.4 mph - 0.00 in   Mostly Cloudy
3:55 AM 17.6 °F 5.0 °F 12.2 °F 79% 30.05 in 10.0 mi West 11.5 mph - 0.00 in   Overcast
4:15 AM 17.6 °F 3.7 °F 10.4 °F 73% 30.05 in 10.0 mi West 13.8 mph - 0.00 in   Overcast
4:35 AM 15.8 °F 2.7 °F 10.4 °F 79% 30.06 in 10.0 mi West 11.5 mph - 0.00 in   Overcast
4:55 AM 15.8 °F 2.7 °F 10.4 °F 79% 30.07 in 10.0 mi West 11.5 mph - 0.00 in   Mostly Cloudy
5:15 AM 14.0 °F -0.2 °F 10.4 °F 86% 30.07 in 10.0 mi West 12.7 mph - 0.00 in   Scattered Clouds
5:35 AM 15.8 °F 2.7 °F 10.4 °F 79% 30.08 in 10.0 mi West 11.5 mph - 0.00 in   Mostly Cloudy
5:55 AM 15.8 °F -0.6 °F 10.4 °F 79% 30.08 in 10.0 mi West 18.4 mph 24.2 mph 0.00 in   Overcast
6:15 AM 15.8 °F 1.4 °F 10.4 °F 79% 30.09 in 10.0 mi West 13.8 mph - 0.00 in   Overcast
6:35 AM 15.8 °F 3.4 °F 10.4 °F 79% 30.10 in 5.0 mi West 10.4 mph - 0.00 in   Overcast
6:55 AM 15.8 °F 2.1 °F 12.2 °F 86% 30.10 in 10.0 mi WNW 12.7 mph - 0.00 in   Mostly Cloudy
7:15 AM 15.8 °F 0.3 °F 8.6 °F 73% 30.12 in 10.0 mi WNW 16.1 mph 23.0 mph 0.00 in   Overcast
7:55 AM 14.0 °F 0.5 °F 8.6 °F 79% 30.13 in 9.0 mi West 11.5 mph - 0.00 in   Mostly Cloudy
8:15 AM 14.0 °F -0.8 °F 8.6 °F 79% 30.13 in 10.0 mi West 13.8 mph 18.4 mph 0.00 in   Partly Cloudy
8:35 AM 14.0 °F -0.8 °F 10.4 °F 86% 30.13 in 10.0 mi West 13.8 mph 18.4 mph 0.00 in   Clear
8:55 AM 14.0 °F -2.5 °F 10.4 °F 86% 30.14 in 10.0 mi West 17.3 mph - 0.00 in   Clear
9:15 AM 14.0 °F -0.2 °F 8.6 °F 79% 30.15 in 10.0 mi West 12.7 mph 18.4 mph 0.00 in   Mostly Cloudy
9:35 AM 14.0 °F -2.0 °F 8.6 °F 79% 30.15 in 10.0 mi West 16.1 mph 23.0 mph 0.00 in   Overcast
9:55 AM 15.8 °F 0.9 °F 8.6 °F 73% 30.15 in 10.0 mi West 15.0 mph 18.4 mph 0.00 in   Overcast
10:15 AM 15.8 °F 2.7 °F 8.6 °F 73% 30.16 in 10.0 mi West 11.5 mph 20.7 mph 0.00 in   Overcast
10:35 AM 17.6 °F 2.2 °F 10.4 °F 73% 30.16 in 10.0 mi West 17.3 mph 21.9 mph 0.00 in   Overcast
10:55 AM 17.6 °F 2.7 °F 10.4 °F 73% 30.16 in 10.0 mi West 16.1 mph 19.6 mph 0.00 in   Overcast
11:15 AM 17.6 °F 5.0 °F 10.4 °F 73% 30.17 in 10.0 mi West 11.5 mph 17.3 mph 0.00 in   Overcast
11:35 AM 17.6 °F 3.7 °F 10.4 °F 73% 30.17 in 10.0 mi West 13.8 mph 21.9 mph 0.00 in   Mostly Cloudy
11:50 AM 17.6 °F 2.2 °F 10.4 °F 73% 30.17 in 10.0 mi West 17.3 mph 20.7 mph 0.00 in   Mostly Cloudy
12:15 PM 19.4 °F 5.0 °F 12.2 °F 74% 30.18 in 10.0 mi West 16.1 mph - 0.00 in   Scattered Clouds
12:35 PM 19.4 °F 6.6 °F 12.2 °F 74% 30.18 in 10.0 mi West 12.7 mph 20.7 mph 0.00 in   Mostly Cloudy
12:50 PM 19.4 °F 5.5 °F 12.2 °F 74% 30.17 in 10.0 mi West 15.0 mph - 0.00 in   Mostly Cloudy
1:15 PM 21.2 °F 8.9 °F 12.2 °F 68% 30.17 in 8.0 mi West 12.7 mph 16.1 mph 0.00 in   Scattered Clouds
1:35 PM 21.2 °F 10.1 °F 14.0 °F 74% 30.17 in 10.0 mi West 10.4 mph 18.4 mph 0.00 in   Scattered Clouds
1:55 PM 21.2 °F 9.5 °F 14.0 °F 74% 30.17 in 9.0 mi WNW 11.5 mph - 0.00 in   Scattered Clouds
2:15 PM 21.2 °F 8.9 °F 14.0 °F 74% 30.17 in 9.0 mi West 12.7 mph - 0.00 in   Mostly Cloudy
2:35 PM 21.2 °F 8.3 °F 14.0 °F 74% 30.18 in 7.0 mi West 13.8 mph - 0.00 in   Mostly Cloudy
3:15 PM 21.2 °F 8.3 °F 14.0 °F 74% 30.19 in 7.0 mi West 13.8 mph 18.4 mph 0.00 in   Scattered Clouds
3:35 PM 21.2 °F 8.3 °F 14.0 °F 74% 30.20 in 8.0 mi West 13.8 mph 19.6 mph 0.00 in   Partly Cloudy
3:50 PM 21.2 °F 8.3 °F 14.0 °F 74% 30.19 in 8.0 mi WNW 13.8 mph 20.7 mph 0.00 in   Partly Cloudy
4:15 PM 21.2 °F 8.9 °F 14.0 °F 74% 30.20 in 7.0 mi West 12.7 mph - 0.00 in   Scattered Clouds
4:35 PM 21.2 °F 8.9 °F 14.0 °F 74% 30.20 in 8.0 mi West 12.7 mph - 0.00 in   Scattered Clouds
4:55 PM 21.2 °F 8.9 °F 14.0 °F 74% 30.20 in 7.0 mi West 12.7 mph 16.1 mph 0.00 in   Scattered Clouds
5:15 PM 21.2 °F 10.9 °F 14.0 °F 74% 30.20 in 7.0 mi West 9.2 mph - 0.00 in   Mostly Cloudy
5:35 PM 21.2 °F 10.1 °F 15.8 °F 80% 30.20 in 5.0 mi West 10.4 mph - 0.00 in   Mostly Cloudy
5:55 PM 21.2 °F 10.1 °F 15.8 °F 80% 30.20 in 7.0 mi West 10.4 mph - 0.00 in   Mostly Cloudy
6:15 PM 21.2 °F 11.7 °F 15.8 °F 80% 30.20 in 7.0 mi West 8.1 mph - 0.00 in   Mostly Cloudy
6:35 PM 21.2 °F 10.1 °F 15.8 °F 80% 30.21 in 7.0 mi West 10.4 mph - 0.00 in   Mostly Cloudy
6:50 PM 21.2 °F 10.9 °F 15.8 °F 80% 30.22 in 8.0 mi West 9.2 mph - 0.00 in   Mostly Cloudy
7:15 PM 21.2 °F 10.9 °F 17.6 °F 86% 30.23 in 8.0 mi West 9.2 mph - 0.00 in   Mostly Cloudy
7:35 PM 21.2 °F 10.1 °F 17.6 °F 86% 30.22 in 5.0 mi West 10.4 mph - 0.00 in   Overcast
7:50 PM 21.2 °F 10.9 °F 17.6 °F 86% 30.22 in 5.0 mi West 9.2 mph - 0.00 in   Overcast
8:15 PM 21.2 °F 11.7 °F 17.6 °F 86% 30.23 in 3.0 mi West 8.1 mph - 0.00 in   Overcast
8:35 PM 21.2 °F 10.9 °F 17.6 °F 86% 30.23 in 5.0 mi West 9.2 mph - 0.00 in   Overcast
8:50 PM 19.4 °F 10.4 °F 17.6 °F 93% 30.23 in 5.0 mi West 6.9 mph - 0.00 in   Overcast
9:15 PM 19.4 °F 10.4 °F 17.6 °F 93% 30.22 in 7.0 mi West 6.9 mph - 0.00 in   Mostly Cloudy
9:35 PM 21.2 °F 13.6 °F 17.6 °F 86% 30.22 in 8.0 mi West 5.8 mph - 0.00 in   Overcast
9:55 PM 21.2 °F 13.6 °F 17.6 °F 86% 30.22 in 5.0 mi West 5.8 mph - 0.00 in   Overcast
10:15 PM 21.2 °F 12.6 °F 19.4 °F 93% 30.23 in 5.0 mi West 6.9 mph - 0.00 in   Overcast
10:35 PM 21.2 °F 11.7 °F 17.6 °F 86% 30.22 in 8.0 mi West 8.1 mph - 0.00 in   Overcast
10:55 PM 21.2 °F 13.6 °F 17.6 °F 86% 30.22 in 8.0 mi WNW 5.8 mph - 0.00 in   Overcast
11:15 PM 21.2 °F 13.6 °F 17.6 °F 86% 30.21 in 9.0 mi West 5.8 mph - 0.00 in   Overcast
11:35 PM 21.2 °F 13.6 °F 17.6 °F 86% 30.21 in 8.0 mi West 5.8 mph - 0.00 in   Overcast
11:55 PM 21.2 °F 13.6 °F 19.4 °F 93% 30.21 in 6.0 mi West 5.8 mph - 0.00 in   Overcast